Location: Most
(50.5133°N, 13.6207°E)
Time: 21:30:56
(UTC+02:00)

ISS - Pass Details

Date: 22 September 2024
Orbit: 412 x 424 km, 51.6° (Epoch: 09 October)

Event Time Altitude Azimuth Distance (km) Brightness Sun altitude
Rises 20:31:14 0° 281° (W) 2,372 1.9 -14.7°
Reaches altitude 10° 20:33:20 10° 282° (WNW) 1,510 0.5 -15.0°
Maximum altitude 20:36:44 81° 11° (N) 434 -3.8 -15.5°
Enters shadow 20:37:59 37° 94° (E) 686 -3.2 -15.7°
